sat.trackr.live / text

‹ back to catalog

HULIANWANG DIGUI-02

NORAD 62324 · 2024-240B

PAYLOAD ACTIVE UNKNOWN

§ Identity

Operator
Country
PRC
Launch date
2024-12-16
Launch site
WSC
Launch vehicle
Mass (kg)
RCS (m²)

External: N2YO · Heavens-Above · Gunter

§ Orbital elements

Epoch: 2026-09-22T21:59:20.979456Z

Period
108.73 min
Inclination
86.5009°
Eccentricity
0.0001700
Mean motion
13.24414263 rev/d
Perigee alt
1,166.6 km
Apogee alt
1,169.2 km
Semi-major
7,546.0 km
B*
1.0103e-4
RAAN
310.4693°
Arg perigee
89.6318°
Mean anomaly
270.5011°
Rev number
8,558

§ Raw data

HULIANWANG DIGUI-021 62324U 24240B   26265.91621504  .00000058  00000+0  10103-3 0  99982 62324  86.5009 310.4693 0001700  89.6318 270.5011 13.24414263 85588

JSON: /api/v1/satellites/62324 · /tle

For live sub-satellite position, see the globe view (requires WebGL).

§ Visibility from observer

Set your observer location to see the next 7 days of passes ≥ 10°. The values pass through the URL so the page stays shareable.

No JS? Fill the form by hand. The geolocation button needs JavaScript.